[[{"header":{"parameterUnit":"m.s-1","parameterCategory":1,"la1":30.2991,"la2":30.254,"lo1":-89.0895,"lo2":-89.0444,"dy":0.0017,"dx":0.0017,"nx":28,"ny":28,"refTime":"2025-12-01T09:00:00:Z","depth":0,"parameterNumber":2,"parameterNumberName":"U-component_of_WINDS"},"data":[0,0,0,0,0,0,0,0,0,0,0,0,0,0,0,0,0,0,0,0,0,0,0,0,0,0,0,0,0,0,0,0,0,0,0,0,0,0,0,0,0,0,0,0,0,0,0,0,0,0,0,0,0,0,0,0,0,0,-5.4453,-5.4453,0,-5.448,-5.4481,-5.4481,-5.4326,-5.4321,-5.4317,-5.4313,-5.4342,-5.4346,-5.4351,0,0,0,0,0,0,0,0,0,0,0,0,0,-5.4268,-5.4272,-5.4453,-5.4453,-5.4454,-5.448,-5.4481,-5.4481,-5.4327,-5.4321,-5.4316,-5.4311,-5.434,-5.4346,-5.4352,0,0,0,0,0,0,0,0,0,0,0,0,0,-5.4327,-5.4273,-5.4453,-5.438,-5.4373,-5.448,-5.4481,-5.4481,-5.4328,-5.4321,-5.4314,-5.4308,-5.4338,-5.4345,-5.4353,-5.4531,0,0,-5.4375,-5.4378,0,0,0,0,0,0,0,0,-5.4324,-5.4334,-5.439,-5.4385,-5.4378,-5.4393,-5.4426,-5.4498,-5.4329,-5.4345,-5.4313,-5.4305,-5.4364,-5.4369,-5.4389,-5.4532,-5.4534,-5.4376,-5.438,-5.4383,-5.4385,0,0,0,0,0,0,0,-5.432,-5.4332,-5.4463,-5.4391,-5.4384,-5.4346,-5.4347,-5.4439,-5.4392,-5.4343,-5.4332,-5.4337,-5.436,-5.4382,-5.4388,-5.4534,-5.4376,-5.4382,-5.4387,-5.4389,-5.4826,-5.4833,0,0,0,0,0,0,-5.4326,-5.433,-5.4463,-5.4464,-5.4334,-5.4355,-5.4356,-5.4395,-5.439,-5.4383,-5.4343,-5.433,-5.4373,-5.438,-5.4389,-5.4597,-5.4383,-5.439,-5.4394,-5.4819,-5.4827,-5.4835,0,0,0,0,0,0,-5.4322,-5.4339,-5.4462,-5.4394,-5.4407,-5.4365,-5.441,-5.4399,-5.4421,-5.439,-5.4381,-5.4375,-5.4368,-5.4378,-5.4497,-5.4596,-5.4393,-5.44,-5.481,-5.4821,-5.4831,-5.5016,0,0,0,0,0,0,-5.4317,-5.4339,-5.4406,-5.4397,-5.4411,-5.4569,-5.4416,-5.4404,-5.4434,-5.4417,-5.4417,-5.4411,-5.4363,-5.4487,-5.4504,-5.4602,-5.4406,-5.4801,-5.4815,-5.4828,-5.5,-5.5031,-5.5058,0,0,0,0,0,-5.4311,-5.4456,-5.441,-5.4427,-5.4494,-5.4575,-5.4583,-5.4526,-5.4443,-5.451,-5.449,-5.4411,-5.4583,-5.45,-5.4518,-5.462,-5.4795,-5.4811,-5.4827,-5.4988,-5.5025,-5.5057,0,0,0,0,0,0,-5.4478,-5.4454,-5.4402,-5.4548,-5.4565,-5.4549,-5.4632,-5.4568,-5.4608,-5.4591,-5.4518,-5.4519,-5.465,-5.4647,-5.4556,-5.4793,-5.4674,-5.4695,-5.479,-5.4826,-5.4854,-5.4851,-5.4412,0,0,0,0,0,-5.4532,-5.46,-5.4575,-5.4707,-5.4718,-5.4674,-5.4707,-5.4662,-5.4676,-5.4682,-5.4671,-5.4689,-5.4746,-5.4786,-5.4837,-5.5,-5.4997,-5.5079,-5.5108,-5.5131,-5.515,-5.5236,-5.5271,-5.4888,-5.4888,-5.4888,0,0,-5.4643,-5.4639,-5.4686,-5.474,-5.4748,-5.482,-5.4681,-5.4763,-5.4816,-5.4695,-5.4806,-5.4799,-5.4813,-5.4955,-5.5017,-5.4956,-5.5255,-5.5152,-5.5171,-5.5176,-5.5256,-5.5292,-5.5325,-5.4899,-5.4897,-5.4895,0,0,-5.4883,-5.4887,-5.4997,-5.5008,-5.5021,-5.4991,-5.5018,-5.5012,-5.5003,-5.5113,-5.5024,-5.5086,-5.5187,-5.5201,-5.5222,-5.547,-5.5398,-5.5489,-5.5638,-5.5723,-5.5753,-5.5779,-5.5867,-5.59,-5.5508,-5.5508,-5.5508,0,-5.502,-5.5125,-5.5062,-5.515,-5.5177,-5.5071,-5.5182,-5.5196,-5.5226,-5.5247,-5.5179,-5.5304,-5.5306,-5.5449,-5.551,-5.5531,-5.5559,-5.5488,-5.5754,-5.5779,-5.5803,-5.5886,-5.592,-5.5519,-5.5518,-5.5516,-5.5515,0,-5.5293,-5.5368,-5.5455,-5.5487,-5.5523,-5.5623,-5.5574,-5.5619,-5.5571,-5.5549,-5.5663,-5.5663,-5.5712,-5.5743,-5.5697,-5.5881,-5.5843,-5.5766,-5.5645,-5.5852,-5.5928,-5.596,-5.5534,-5.553,-5.5527,-5.5525,0,0,-5.5637,-5.5633,-5.5666,-5.5679,-5.5687,-5.5744,-5.5839,-5.5888,-5.5927,-5.5953,-5.603,-5.6119,-5.6048,-5.6072,-5.6027,-5.6101,-5.6297,-5.6015,-5.6014,-5.6067,-5.65,-5.6557,-5.6595,-5.6251,-5.6257,-5.6261,-5.6498,0,-5.5871,-5.6033,-5.5979,-5.6143,-5.6211,-5.6113,-5.6196,-5.621,-5.6193,-5.6248,-5.6228,-5.6292,-5.6194,-5.6208,-5.6277,-5.6259,-5.6383,-5.6241,-5.6323,-5.6326,-5.6321,-5.6635,-5.6695,-5.6919,-5.6528,-5.6533,-5.6537,0,-5.6165,-5.6202,-5.6374,-5.637,-5.6397,-5.6473,-5.6513,-5.6567,-5.6582,-5.6564,-5.6592,-5.6531,-5.6625,-5.6505,-5.6633,-5.6538,-5.6568,-5.6565,-5.6572,-5.6576,-5.6443,-5.6647,-5.6988,-5.7022,-5.6583,-5.658,-5.6576,0,-5.6398,-5.6491,-5.6605,-5.6619,-5.6619,-5.6675,-5.6677,-5.6685,-5.6718,-5.6754,-5.6775,-5.6822,-5.6847,-5.6885,-5.6839,-5.6756,-5.6975,-5.6851,-5.6962,-5.6964,-5.7011,-5.7009,-5.7362,-5.7034,-5.7033,-5.7032,-5.7032,0,-5.6664,-5.6773,-5.6709,-5.678,-5.6899,-5.6837,-5.6956,-5.6948,-5.6956,-5.7024,-5.6942,-5.7007,-5.6943,-5.7002,-5.6967,-5.7079,-5.7091,-5.7079,-5.7068,-5.7086,-5.7087,-5.7104,-5.7087,-5.7041,-5.7039,-5.7038,-5.7036,0,-5.6943,-5.6905,-5.7023,-5.7014,-5.7014,-5.7103,-5.7094,-5.7159,-5.7136,-5.7223,-5.7239,-5.7204,-5.727,-5.7228,-5.7295,-5.7271,-5.7417,-5.7385,-5.7412,-5.7403,-5.7516,-5.7506,-5.7891,-5.7938,-5.7581,-5.7585,-5.7588,0,-5.7115,-5.7196,-5.7196,-5.7235,-5.7243,-5.7307,-5.734,-5.7283,-5.7321,-5.7345,-5.7408,-5.7467,-5.751,-5.7621,-5.7601,-5.7652,-5.762,-5.7752,-5.7627,-5.7642,-5.7621,-5.7616,-5.7624,-5.7776,-5.778,-5.7784,-5.7787,0,-5.7424,-5.7401,-5.7452,-5.7498,-5.754,-5.7573,-5.7599,-5.7636,-5.7579,-5.7626,-5.7693,-5.7727,-5.7795,-5.7855,-5.7898,-5.7901,-5.7835,-5.7827,-5.7855,-5.7873,-5.7884,-5.7879,-5.7479,-5.7817,-5.7814,-5.7812,-5.781,-5.7809,-5.7653,-5.7721,-5.7731,-5.7791,-5.7805,-5.7832,-5.7893,-5.7878,-5.7932,-5.7983,-5.7947,-5.8026,-5.8039,-5.809,-5.8102,-5.8163,-5.811,-5.8151,-5.8161,-5.8172,-5.8187,-5.7876,-5.8171,-5.817,-5.8169,-5.8168,-5.8168,0,-5.7956,-5.7959,-5.8015,-5.8054,-5.8102,-5.8036,-5.8063,-5.8107,-5.8177,-5.8195,-5.8241,-5.8317,-5.8375,-5.8361,-5.8413,-5.8465,-5.8436,-5.8481,-5.8476,-5.8477,-5.8232,-5.8202,-5.8503,-5.8503,-5.8503,-5.8503,-5.8503,-5.8503,-5.812,-5.8231,-5.821,-5.8328,-5.8329,-5.8405,-5.8426,-5.8451,-5.8465,-5.8554,-5.8602,-5.8593,-5.8598,-5.865,-5.8701,-5.8695,-5.8718,-5.8773,-5.8757,-5.8528,-5.8495,-5.8463,-5.8434,-5.8779,-5.878,-5.8996,-5.8999,-5.9]},{"header":{"parameterUnit":"m.s-1","parameterCategory":1,"la1":30.2991,"la2":30.254,"lo1":-89.0895,"lo2":-89.0444,"dy":0.0017,"dx":0.0017,"nx":28,"ny":28,"refTime":"2025-12-01T09:00:00:Z","depth":0,"parameterNumber":3,"parameterNumberName":"V-component_of_WINDS"},"data":[0,0,0,0,0,0,0,0,0,0,0,0,0,0,0,0,0,0,0,0,0,0,0,0,0,0,0,0,0,0,0,0,0,0,0,0,0,0,0,0,0,0,0,0,0,0,0,0,0,0,0,0,0,0,0,0,0,0,-1.9166,-1.9166,0,-1.9195,-1.9196,-1.9196,-1.9167,-1.9166,-1.9165,-1.9164,-1.9193,-1.9195,-1.9197,0,0,0,0,0,0,0,0,0,0,0,0,0,-1.9084,-1.9085,-1.9166,-1.9166,-1.9167,-1.9195,-1.9196,-1.9196,-1.9168,-1.9166,-1.9165,-1.9164,-1.9193,-1.9195,-1.9197,0,0,0,0,0,0,0,0,0,0,0,0,0,-1.9117,-1.9086,-1.9166,-1.9156,-1.9156,-1.9195,-1.9196,-1.9196,-1.9168,-1.9166,-1.9165,-1.9163,-1.9192,-1.9195,-1.9197,-1.9248,0,0,-1.9206,-1.9207,0,0,0,0,0,0,0,0,-1.9115,-1.912,-1.9157,-1.9157,-1.9156,-1.9176,-1.9177,-1.9213,-1.9168,-1.9163,-1.9164,-1.9162,-1.9189,-1.9192,-1.9201,-1.9249,-1.9251,-1.9206,-1.9208,-1.9209,-1.9209,0,0,0,0,0,0,0,-1.9113,-1.9118,-1.9178,-1.9158,-1.9157,-1.9149,-1.9152,-1.9184,-1.9185,-1.9164,-1.9162,-1.9165,-1.9188,-1.9198,-1.9201,-1.9251,-1.9206,-1.9208,-1.921,-1.9211,-1.9341,-1.9342,0,0,0,0,0,0,-1.9112,-1.9117,-1.9177,-1.9178,-1.9131,-1.9152,-1.9156,-1.9171,-1.9185,-1.9185,-1.9167,-1.9164,-1.9194,-1.9198,-1.9202,-1.9262,-1.9209,-1.9211,-1.9213,-1.9339,-1.9341,-1.9343,0,0,0,0,0,0,-1.911,-1.9117,-1.9175,-1.9147,-1.9154,-1.9156,-1.9174,-1.9173,-1.9183,-1.9187,-1.9187,-1.9177,-1.9193,-1.9198,-1.9236,-1.9262,-1.9212,-1.9215,-1.9337,-1.934,-1.9342,-1.9381,0,0,0,0,0,0,-1.9108,-1.9117,-1.9137,-1.9148,-1.9156,-1.921,-1.9175,-1.9175,-1.9188,-1.9184,-1.9197,-1.9197,-1.9192,-1.9233,-1.9239,-1.9265,-1.9217,-1.9334,-1.9338,-1.9341,-1.9378,-1.9385,-1.9391,0,0,0,0,0,-1.9105,-1.9147,-1.9138,-1.9145,-1.9181,-1.9212,-1.9216,-1.921,-1.919,-1.921,-1.9212,-1.9197,-1.9258,-1.9237,-1.9244,-1.9271,-1.9333,-1.9337,-1.9341,-1.9375,-1.9384,-1.9391,0,0,0,0,0,0,-1.9139,-1.9148,-1.9139,-1.9185,-1.9198,-1.9207,-1.9231,-1.922,-1.9238,-1.9234,-1.9225,-1.9228,-1.9268,-1.9273,-1.9249,-1.932,-1.9292,-1.9298,-1.9315,-1.9324,-1.933,-1.9328,-1.9219,0,0,0,0,0,-1.9152,-1.9177,-1.9183,-1.9224,-1.9231,-1.923,-1.9243,-1.9237,-1.925,-1.9255,-1.926,-1.9273,-1.9295,-1.9309,-1.933,-1.9378,-1.938,-1.94,-1.9407,-1.9412,-1.9417,-1.9442,-1.9451,-1.9356,-1.9356,-1.9356,0,0,-1.9179,-1.9187,-1.9204,-1.9231,-1.924,-1.9265,-1.9235,-1.9263,-1.9282,-1.9259,-1.9296,-1.93,-1.9313,-1.9356,-1.9375,-1.9361,-1.9444,-1.9417,-1.9422,-1.9424,-1.9447,-1.9456,-1.9464,-1.9359,-1.9359,-1.9358,0,0,-1.9242,-1.9251,-1.9285,-1.9294,-1.9308,-1.9307,-1.9315,-1.9326,-1.9328,-1.9364,-1.9347,-1.9368,-1.9407,-1.9416,-1.9426,-1.949,-1.9477,-1.9497,-1.9533,-1.9557,-1.9564,-1.9571,-1.9593,-1.9601,-1.9502,-1.9502,-1.9502,0,-1.9274,-1.9312,-1.9304,-1.9333,-1.9345,-1.9326,-1.936,-1.9369,-1.9389,-1.9397,-1.9382,-1.9428,-1.9436,-1.948,-1.9496,-1.9505,-1.9513,-1.9496,-1.9564,-1.957,-1.9576,-1.9597,-1.9606,-1.9505,-1.9504,-1.9504,-1.9504,0,-1.935,-1.9376,-1.9402,-1.9422,-1.9436,-1.9468,-1.9464,-1.948,-1.9472,-1.9472,-1.9509,-1.9517,-1.9538,-1.9548,-1.9541,-1.9591,-1.9582,-1.9565,-1.9537,-1.9588,-1.9607,-1.9615,-1.9508,-1.9507,-1.9506,-1.9506,0,0,-1.9436,-1.945,-1.9459,-1.9467,-1.948,-1.95,-1.953,-1.9551,-1.9564,-1.9578,-1.9602,-1.9634,-1.9618,-1.963,-1.9623,-1.9644,-1.9693,-1.9625,-1.9625,-1.9637,-1.9748,-1.9761,-1.977,-1.9684,-1.9685,-1.9687,-1.9747,0,-1.9498,-1.9551,-1.9544,-1.9594,-1.9618,-1.9598,-1.9624,-1.9635,-1.9635,-1.9655,-1.9655,-1.9678,-1.9655,-1.9662,-1.9682,-1.9683,-1.9715,-1.9679,-1.9706,-1.9707,-1.9704,-1.9781,-1.9794,-1.9851,-1.9754,-1.9756,-1.9757,0,-1.9579,-1.9595,-1.9648,-1.9655,-1.9665,-1.9689,-1.9706,-1.9725,-1.9736,-1.9735,-1.9747,-1.9736,-1.9765,-1.9736,-1.9775,-1.975,-1.9761,-1.9763,-1.9765,-1.9767,-1.9735,-1.9785,-1.9869,-1.9877,-1.9769,-1.9768,-1.9767,0,-1.9636,-1.9671,-1.9706,-1.9714,-1.9724,-1.9741,-1.9746,-1.9755,-1.9767,-1.9782,-1.979,-1.9808,-1.9818,-1.9832,-1.9826,-1.9806,-1.9866,-1.9837,-1.9866,-1.9866,-1.988,-1.9879,-1.9966,-1.9887,-1.9886,-1.9886,-1.9886,0,-1.9706,-1.9739,-1.9732,-1.9754,-1.9789,-1.978,-1.9815,-1.9818,-1.9826,-1.9847,-1.9832,-1.9852,-1.9843,-1.9862,-1.9857,-1.989,-1.9895,-1.9894,-1.9893,-1.9896,-1.9896,-1.9903,-1.9899,-1.9889,-1.9888,-1.9888,-1.9887,0,-1.9776,-1.9773,-1.981,-1.9817,-1.9819,-1.9845,-1.985,-1.987,-1.9868,-1.9896,-1.9901,-1.9899,-1.9921,-1.9916,-1.9941,-1.9937,-1.9978,-1.9972,-1.9975,-1.9973,-2.0002,-1.9999,-2.0097,-2.0109,-2.0021,-2.0022,-2.0023,0,-1.9822,-1.9846,-1.9855,-1.9868,-1.9874,-1.9896,-1.9908,-1.9899,-1.9913,-1.9926,-1.9944,-1.9964,-1.998,-2.0016,-2.0016,-2.0034,-2.0028,-2.0061,-2.0031,-2.0033,-2.0028,-2.0027,-2.0029,-2.0067,-2.0068,-2.0069,-2.007,0,-1.9902,-1.9899,-1.9917,-1.9935,-1.995,-1.9963,-1.9975,-1.9987,-1.9979,-1.9995,-2.0017,-2.0029,-2.0053,-2.0073,-2.0089,-2.0094,-2.008,-2.0079,-2.0086,-2.009,-2.0091,-2.009,-1.9991,-2.0077,-2.0076,-2.0076,-2.0075,-2.0075,-1.9961,-1.9982,-1.999,-2.0011,-2.0019,-2.003,-2.0049,-2.0049,-2.0068,-2.0087,-2.008,-2.0105,-2.0114,-2.0134,-2.014,-2.0159,-2.0147,-2.0158,-2.0161,-2.0163,-2.0167,-2.0087,-2.0162,-2.0162,-2.0162,-2.0162,-2.0161,0,-2.0041,-2.0045,-2.0064,-2.0081,-2.0097,-2.0082,-2.0094,-2.0108,-2.0131,-2.014,-2.0155,-2.018,-2.0199,-2.02,-2.0218,-2.0233,-2.0227,-2.0238,-2.0237,-2.0238,-2.0177,-2.0169,-2.0242,-2.0242,-2.0242,-2.0242,-2.0242,-2.0242,-2.0084,-2.0117,-2.0115,-2.0152,-2.0156,-2.018,-2.0188,-2.0198,-2.0205,-2.0233,-2.0249,-2.0249,-2.0255,-2.0273,-2.0289,-2.0289,-2.0296,-2.0309,-2.0307,-2.025,-2.0242,-2.0235,-2.0227,-2.0311,-2.0311,-2.0366,-2.0366,-2.0367]}]]